THURAYA-3 (32404 NORAD) Tracking and Keplerian Element Data

This shows tracking and keplerian element data for the satellite.

Feedback or suggestion? Click here.




ElementValue
Catalog32404
NameTHURAYA-3
Epoch Orbit5864
Epoch Day13.10365505
Epoch Year2024
RAAN30.9505
Inclination4.6422
Eccentricity0.0002136
Argument of Perigee274.786
Mean Anonmoly302.1552
Mean Motion1.00271796
Decay Rate-2.95E-06
L11 32404U 08001A 24013.10365505 -.00000295 00000+0 00000+0 0 9992
L22 32404 4.6422 30.9505 0002136 274.7860 302.1552 1.00271796 58645



Live tracking and technical data element details for THURAYA-3 (NORAD 32404). THURAYA-3 can be tracked NOW for your location showing map with azimuth and elevation plus other details from your city location.







IsCatalogInMostPopularTable: catalog: 32404, numindb: 1191
Update: records affected: 1



GetName: 32404 THURAYA-3

Hit Count: updated at: Fri, 19 Apr 2024 12:14:38 GMT